Location: Dumpton Point
(51.3500°N, 1.4433°E)
Time: 05:33:23
(UTC+00:00)

Altair - Pass Details

Date: 03 October 2022
Orbit: 1501 x 1682 km, 47.2° (Epoch: 26 November)

Event Time Altitude Azimuth Distance (km) Brightness Sun altitude
Rises 02:31:16 0° 173° (S) 4,741 - -31.1°
Exits shadow 02:33:44 - 163° (SSE) 4,236 9.6 -30.8°
Reaches altitude 10° 02:36:34 10° 149° (SSE) 3,804 9.5 -30.5°
Maximum altitude 02:40:35 13° 123° (ESE) 3,573 9.6 -30.0°
Drops below altitude 10° 02:44:39 10° 98° (E) 3,871 10.1 -29.4°
Sets 02:50:07 0° 75° (ENE) 4,897 11.2 -28.7°
